COSMOS 2491 DEB, 47111

Orbit data source: Space-Track

COSMOS 2491 DEB, 47111 is space debris in LEO originally from a launch on Wed, 25 Dec 2013 UTC launched from the Plesetsk Missile And Space Complex (PKMTR). Debris objects in space refer to the collection of defunct objects orbiting the Earth. Examples of debris include non-operational satellites, rocket bodies, and fragments generated from explosions, collisions, or faulty payload assembly.

Loading next visibility...
COSMOS 2491 DEB details
Identifier
47111, 2013-076AG
Orbit
LEO
Last TLE update1 week ago
Origin
Flag of CISTsNIIKhM (CIS)
ManufacturerTsNIIKhM
MissionSpacecraft
Bus & MotorUnknown
MassUnknown
Launch date (UTC)
2013-12-25 (11 years ago)
Launch vehicleUnknown
Launch site
Plesetsk Missile And Space Complex (PKMTR)
Object type
Payload
Rocket body
Debris
Shape & HBRUnknown
Radar Cross SectionSmall (<0.1 m²)

Expand to show TLE details & history

TLE from 1 week ago
0 COSMOS 2491 DEB
1 47111U 13076AG  24351.12151589  .00005459  00000-0  33049-1 0  9991
2 47111  82.4644 132.9785 0066824 257.1674 102.1941 12.55544237222009
Epoch: 2024-12-16T02:54Z
Definitive object data (Epoch: 2024-12-16T02:54:58.972Z)
Latitude-0.00004°
Longitude3.9838°
Altitude1,455.479 km
Speed7.129 km/s
True Right ascension08h 51m 54s
True Declination0° 00' 00"
Sunlit
Object was in full shadow at TLE epoch
Visualization TLE readout
Latitude67.82893°
Longitude16.24494°
Altitude1,503.104 km
Speed7.096 km/s
Apparent Right ascension20h 48m 19s
Apparent Declination58° 42' 04"
Sunlit
Object is in daylight
Visualization observer readout
Local Sidereal Time09:20:10
Azimuth4.177° NNE
Elevation8.84°
Doppler factor1
Orbital elements
Apogee altitude1,490.96 km
Perigee altitude1,386.489 km
Semi-major axis7,816.862 km
Eccentricity0.0066824
Inclination82.4644°
RAAN132.9785°
Arg. of periapsis257.1674°
True anomaly102.94123°
Mean anomaly102.1941°
Eccentric anomaly102.5678°
Mean motion3.14047 °/min
BSTAR0.033049
Orbital period114.63 mins
Loading maneuver chart data...
Loading historical data...
Loading historical data...
Loading historical data...
Loading historical data...
Loading historical data...
Loading historical data...
Loading historical data...

COSMOS 2491 DEB Visibility forecast

Observer location: undefined°, undefined

Span
Click to sort rows by Start time (UTC) header in descending order
Start Az.
Max El. time (UTC)
Max El. Az.
Max El.
End time (UTC)
End Az.
7 mins2024-12-26 11:44:04.049Z277.857° WNW2024-12-26 11:47:04.049Z299.073° NW13.201°2024-12-26 11:51:04.049Z327.277° NNW
15 mins2024-12-26 19:48:04.049Z4.509° NNE2024-12-26 19:55:04.049Z77.855° E38.438°2024-12-26 20:03:04.049Z151.815° SSE
13 mins2024-12-26 21:44:04.049Z329.526° NNW2024-12-26 21:50:04.049Z277.57° WNW27.96°2024-12-26 21:57:04.049Z218.43° SW
14 mins2024-12-27 08:40:04.049Z160.727° S2024-12-27 08:46:04.049Z101.714° ESE39.433°2024-12-27 08:54:04.049Z17.715° NNE
|